Location: Exeidioux
(45.6312°N, 1.6819°E)
Time: 16:19:28
(UTC+00:00)

Cosmos 2242 Rocket - Pass Details

Date: 03 March 2021
Orbit: 617 x 652 km, 82.5° (Epoch: 11 April)

Event Time Altitude Azimuth Distance (km) Brightness Sun altitude
Rises 19:05:39 0° 352° (N) 2,959 7.2 -15.2°
Reaches altitude 10° 19:07:55 10° 354° (N) 2,039 6.4 -15.6°
Maximum altitude 19:12:27 76° 81° (E) 658 3.5 -16.4°
Drops below altitude 10° 19:16:53 10° 167° (SSE) 2,000 6.0 -17.2°
Sets 19:19:06 0° 169° (S) 2,897 6.8 -17.5°
